Printer-friendly version

IAU Minor Planet Center

Minor Planet Center

MPEC 2006-W116: 2006 WO130

The following Minor Planet Electronic Circular may be linked-to from your own Web pages, but must not otherwise be redistributed electronically.


Read MPEC 2006-W115 Read MPEC 2006-W117


M.P.E.C. 2006-W116                               Issued 2006 Nov. 30, 14:32 UT

     The Minor Planet Electronic Circulars contain information on unusual
         minor planets and routine data on comets.  They are published
   on behalf of Commission 20 of the International Astronomical Union by the
          Minor Planet Center, Smithsonian Astrophysical Observatory,
                          Cambridge, MA 02138, U.S.A.

             Prepared using the Tamkin Foundation Computer Network

                              MPC@CFA.HARVARD.EDU
          URL http://cfa-www.harvard.edu/iau/mpc.html  ISSN 1523-6714

                                  2006 WO130

Observations:
     K06WD0O* C2006 11 27.26108 02 50 05.38 +28 01 35.7          20.7 V EW116G96
     K06WD0O  C2006 11 27.26173 02 50 05.53 +28 01 29.3          20.3 V EW116G96
     K06WD0O  C2006 11 27.26237 02 50 05.60 +28 01 21.3          20.4 V EW116G96
     K06WD0O  C2006 11 27.26303 02 50 05.74 +28 01 13.1          20.4 V EW116G96
     K06WD0O  C2006 11 27.26434 02 50 05.97 +28 00 56.6          21.1 V EW116G96
     K06WD0O  C2006 11 27.26500 02 50 06.06 +28 00 47.9          20.6 V EW116G96
     K06WD0O  C2006 11 27.26566 02 50 06.22 +28 00 39.7          20.7 V EW116G96
     K06WD0O  C2006 11 27.26631 02 50 06.33 +28 00 31.6          20.2 V EW116G96
     K06WD0O  C2006 11 27.32744 02 50 17.41 +27 47 37.8          20.2 V EW116G96
     K06WD0O  C2006 11 27.32810 02 50 17.52 +27 47 29.4          20.6 V EW116G96
     K06WD0O  C2006 11 27.32875 02 50 17.66 +27 47 21.0          20.8 V EW116G96
     K06WD0O  C2006 11 27.32940 02 50 17.77 +27 47 13.2          21.0 V EW116G96

Observer details:
G96 Mt. Lemmon Survey.  Observer R. E. Hill.  Measurers E. C. Beshore,
    E. J. Christensen, G. J. Garradd, A. R. Gibbs, A. D. Grauer, R. E. Hill,
    R. A. Kowalski, S. M. Larson, R. H. McNaught.  1.5-m reflector + CCD.

Orbital elements:
2006 WO130                                               Earth MOID = 0.0221 AU
Epoch 2006 Nov. 21.0 TT = JDT 2454060.5                 MPC
M 337.88753              (2000.0)            P               Q
n   0.45908031     Peri.  230.31956     -0.43378573     -0.87945195
a   1.6642182      Node   246.43012     +0.87821271     -0.36407175
e   0.4559844      Incl.   12.34392     +0.20142587     -0.30662032
P   2.15           H   26.1           G   0.15
From 12 observations 2006 Nov. 27-27.  E-assumed.

Ephemeris:
2006 WO130               a,e,i = 1.66, 0.46, 12                  q = 0.9054
Date    TT    R. A. (2000) Decl.     Delta      r     Elong.  Phase     V
2006 12 01    03 13.43   +06 06.5    0.0298   1.013   156.3    23.0    19.6
2006 12 02    03 24.00   -04 42.5    0.0262   1.008   148.7    30.5    19.5
2006 12 03    03 37.93   -18 16.6    0.0238   1.003   137.3    41.8    19.6
2006 12 04    03 56.90   -33 35.3    0.0231   0.998   123.3    55.6    19.9
2006 12 05    04 23.65   -48 23.3    0.0242   0.994   109.1    69.5    20.4

Kyle E. Smalley              (C) Copyright 2006 MPC           M.P.E.C. 2006-W116

Read MPEC 2006-W115 Read MPEC 2006-W117


Our Web policy. Index to the CBAT/MPC/ICQ pages.


Valid HTML 4.01!